Weather in Bolshiye Butyrki

Russia / Kursk Oblast     51°28′37″N   37°23′24″E
temp.,
°C
wind,
m/s
gust,
m/s
humid.,
%
clouds,
%
prec.,
mm/h
press.,
hPa
HPBL,
m
4 march, thu
thu400:00−1w6149226 0.0 1018449
03:00−2w6129329 0.0 1017357
06:00−3wsw6129325 0.0 1015296
09:00−2wsw7138812 0.0 1013437
12:00+1wsw815850 0.0 1011684
15:00+2wsw815890 0.0 1008644
18:00+2wsw615891 0.0 1006510
21:00+1w7139736 0.1 1005665
5 march, fri
fri500:00+1wsw51298100 0.3 1005462
03:00+1w61097100 0.5 1005469
06:000nw5994100 0.1 1007519
09:00−1wnw588499 0.2 1009749
12:00−1n448793 0.1 1011480
15:000n338094 0.1 1012493
18:00−2n2389100 0.0 1013150
21:00−2n1189100 0.0 101522
6 march, sat
sat600:00−3n2289100 0.0 1016105
03:00−4n2390100 0.0 1016112
06:00−5n2391100 0.0 1016110
09:00−4nw3489100 0.0 1016241
12:00−3nw578368 0.0 1016581
15:00−4nw697684 0.1 1016913
18:00−5wnw6108086 0.1 1017866
21:00−6nw8138192 0.3 1019762
7 march, sun
sun700:00−7nw6117772 0.0 1021488
03:00−8wnw488436 0.0 1021322
06:00−7wsw510830 0.0 1020409
09:00−5wsw8136835 0.0 1018843
12:00−2wsw101657100 0.0 10141144
15:000wsw111856100 0.0 10111418
18:00−1wsw101980100 0.3 10081281
21:00−1wsw9178099 0.3 1008986
8 march, mon
mon800:00−2wsw8168184 0.0 1007790
03:00−1wsw8148791 0.1 1006906
06:00−2wsw81592100 0.2 1004862
09:00−2wnw91292100 0.7 1005974
12:00−3nw91273100 0.1 10081258
15:00−4wnw575381 0.1 1011938
18:00−6nw36690 0.0 1012481
21:00−7nw23720 0.0 1014167